This demonstration page uses our WeatherBlox Daily Observations layout. Learn more.

Left ArrowRight Arrow

38.20091, -84.87328

Hourly Observations for June 7, 2021

Temp ( °F °C ) Dew Point ( °F °C ) Humidity (%) Winds ( mph kmh ) Pressure ( in mb ) Visibility ( mi km ) Precip ( " mm )
12:53 am 00:53 Cloudy 73 22.8 68 20 84 84 Calm 30.01 1016 10 16 0.00 0.00
1:53 am 01:53 Cloudy 73 22.8 68 20 84 84 Calm 30.00 1016 10 16 0.00 0.00
2:53 am 02:53 Mostly Cloudy 72 22.2 68 20 87 87 Calm 29.98 1015 10 16 0.00 0.00
3:53 am 03:53 Cloudy 72 22.2 68 20 87 87 E 3 6 29.97 1015 10 16 0.00 0.00
4:22 am 04:22 Cloudy with Heavy Rain 73 22.8 69 20.6 87 87 SSE 9 15 29.98 1015 2 3 0.14 3.56
4:32 am 04:32 Cloudy with Rain 73 22.8 69 20.6 87 87 S 12 19 29.97 1015 2 3 0.24 6.10
4:40 am 04:40 Cloudy 73 22.8 69 20.6 87 87 SE 6 9 29.97 1015 10 16 0.24 6.10
4:53 am 04:53 Cloudy 73 22.8 70 21.1 90 90 SSE 5 7 29.98 1015 10 16 0.24 6.10
5:53 am 05:53 Cloudy 72 22.2 69 20.6 91 91 Calm 30.00 1016 9 14 0.01 0.25
6:53 am 06:53 Mostly Cloudy with Light Rain 73 22.8 69 20.6 87 87 SE 3 6 30.00 1016 8 13 0.01 0.25
7:53 am 07:53 Cloudy 73 22.8 70 21.1 90 90 S 5 7 30.02 1017 10 16 0.00 0.00
8:53 am 08:53 Cloudy 74 23.3 70 21.1 88 88 SSE 8 13 30.04 1017 10 16 0.00 0.00
9:53 am 09:53 Cloudy 75 23.9 69 20.6 82 82 S 8 13 30.05 1018 10 16 0.00 0.00
10:53 am 10:53 Partly Cloudy 77 25 69 20.6 77 77 S 12 19 30.05 1018 10 16 0.00 0.00
11:28 am 11:28 Mostly Cloudy 78 25.6 69 20.6 74 74 SSW 12 19 30.05 1017 10 16 0.00 0.00
11:53 am 11:53 Cloudy with Light Rain 77 25 69 20.6 77 77 SSW 9 15 30.06 1018 10 16 0.00 0.00
12:09 pm 12:09 Mostly Cloudy 79 26.1 69 20.6 72 72 SSW 10 17 30.04 1017 10 16 0.00 0.00
12:53 pm 12:53 Partly Cloudy 81 27.2 69 20.6 67 67 S 12 19 30.05 1018 10 16 0.00 0.00
1:53 pm 13:53 Mostly Sunny 80 26.7 67 19.4 64 64 SSW 8 13 30.04 1017 10 16 0.00 0.00
2:53 pm 14:53 Mostly Cloudy with Light Rain 81 27.2 68 20 65 65 S 9 15 30.02 1017 10 16 0.00 0.00
3:53 pm 15:53 Partly Cloudy 83 28.3 69 20.6 63 63 S 10 17 29.99 1016 10 16 0.00 0.00
4:41 pm 16:41 Cloudy with Heavy Rain 73 22.8 68 20 84 84 SSW 15 24 30.01 1016 2 3 0.05 1.27
4:46 pm 16:46 Cloudy with Heavy Rain 73 22.8 68 20 84 84 SW 9 15 30.00 1016 2 3 0.07 1.78
4:53 pm 16:53 Cloudy with Rain 73 22.8 69 20.6 87 87 SW 3 6 30.00 1016 3 4 0.09 2.29
5:01 pm 17:01 Mostly Cloudy with Light Rain 74 23.3 70 21.1 88 88 SSW 5 7 29.98 1015 9 14 0.00 0.00
5:53 pm 17:53 Mostly Cloudy 78 25.6 72 22.2 82 82 S 7 11 29.98 1015 10 16 0.00 0.00
6:53 pm 18:53 Sunny 81 27.2 72 22.2 74 74 S 7 11 29.96 1015 10 16 0.00 0.00
7:53 pm 19:53 Mostly Cloudy 80 26.7 70 21.1 71 71 S 9 15 29.97 1015 10 16 0.00 0.00
8:53 pm 20:53 Sunny 77 25 69 20.6 77 77 S 7 11 29.98 1015 10 16 0.00 0.00
9:53 pm 21:53 Clear 76 24.4 69 20.6 79 79 Calm 29.99 1016 10 16 0.00 0.00
10:53 pm 22:53 Partly Cloudy 74 23.3 69 20.6 85 85 SE 5 7 30.02 1017 10 16 0.00 0.00
11:53 pm 23:53 Clear 70 21.1 67 19.4 90 90 Calm 30.04 1017 10 16 0.00 0.00

Powered by AerisWeather